User: anonymous   Login
Location: Clinton NY
(43.0598°N, 75.3602°W)
Time: 21:27:02
(UTC-04:00)
Language:

Iridium 11 - Orbit

View from above orbital plane
View from above orbital plane
View from above satellite
View from above satellite

Ground track
Ground track

The orbit data is extracted from the following two-line orbital elements,

1 25578U 98074B   15208.49296832  .00000026  00000-0  21232-5 0  9997
2 25578 086.3980 184.3171 0002433 082.9836 031.7965 14.34218377878404
Epoch (UTC): 27 July 2015 11:49:52
Eccentricity: 0.0002433
inclination: 86.3980°
perigee height: 776 km
apogee height: 779 km
right ascension of ascending node: 184.3171°
argument of perigee: 82.9836°
revolutions per day: 14.34218377
mean anomaly at epoch: 31.7965°
orbit number at epoch: 87840

The dashed part of the orbit path shows where the satellite is in the earth's shadow,  

DLR